Trenton, NJ

1:17 PM EST on December 11, 2019 (GMT -0500)
Trenton Mercer

Weather History for KTTN - November, 2019

Change the Weather History Date:

Tuesday, November 12, 2019

  Actual Average Record
Temperature  
Mean Temperature 39 °F 47 °F  
Max Temperature 55 °F 56 °F 74 °F (1912)
Min Temperature 23 °F 38 °F 24 °F (2001)
Degree Days  
Heating Degree Days 26 18  
Month to date heating degree days 269 198  
Since 1 July heating degree days 516 595  
Cooling Degree Days 0 0  
Month to date cooling degree days 0 0  
Year to date cooling degree days 1164 965  
Moisture  
Dew Point 30 °F    
Average Humidity 71    
Maximum Humidity 93    
Minimum Humidity 39    
Precipitation  
Precipitation 0.08 in 0.09 in 1.80 in (1975)
Month to date precipitation 0.28 1.27  
Year to date precipitation 44.18 40.70  
Sea Level Pressure  
Sea Level Pressure 29.90 in    
Wind  
Wind Speed 8 mph ()    
Max Wind Speed 22 mph    
Max Gust Speed 31 mph    
Visibility 8.7 miles    
Events Rain , Snow    
T = Trace of Precipitation, MM = Missing Value Source: Averaged Metar Reports

Daily Weather History Graph

Daily Weather History Graph

Search for Another Location

Airport or City:

Astronomy

Nov. 12, 2019 Rise Set
Actual Time 6:41 AM EST 4:44 PM EST
Civil Twilight 6:12 AM EST 5:13 PM EST
Nautical Twilight 5:39 AM EST 5:46 PM EST
Astronomical Twilight 5:07 AM EST 6:18 PM EST
Moon 5:10 PM EST (11/12) 6:30 AM EST (11/12)
Length of Visible Light 11h 01m
Length of Day
10h 03m
Full, 100% of the Moon is Illuminated
Nov 12
Full
Nov 19
Last Quarter
Nov 26
New
Dec 4
First Quarter
Dec 12
Full

Hourly Weather History & Observations

Time (EST) Temp. Windchill Dew Point Humidity Pressure Visibility Wind Dir Wind Speed Gust Speed Precip Events Conditions
12:53 AM 51.1 °F - 46.0 °F 83% 29.74 in 10.0 mi South 5.8 mph - N/A   Clear
1:53 AM 52.0 °F - 45.0 °F 77% 29.72 in 10.0 mi Calm Calm - N/A   Clear
2:53 AM 53.1 °F - 44.1 °F 71% 29.70 in 10.0 mi SW 4.6 mph - N/A   Clear
3:53 AM 54.0 °F - 44.1 °F 69% 29.70 in 10.0 mi SW 8.1 mph - N/A   Clear
4:53 AM 54.0 °F - 43.0 °F 66% 29.70 in 10.0 mi SSW 5.8 mph - N/A   Clear
5:53 AM 54.0 °F - 43.0 °F 66% 29.70 in 10.0 mi WSW 6.9 mph - 0.00 in Rain Light Rain
6:20 AM 52.0 °F - 45.0 °F 77% 29.74 in 8.0 mi West 6.9 mph - 0.00 in Rain Light Rain
6:53 AM 51.1 °F - 46.0 °F 83% 29.73 in 6.0 mi SW 6.9 mph - 0.02 in Rain Light Rain
7:38 AM 50.0 °F - 48.0 °F 93% 29.76 in 4.0 mi West 8.1 mph - 0.03 in Rain Light Rain
7:53 AM 50.0 °F - 48.0 °F 93% 29.75 in 4.0 mi NW 18.4 mph 29.9 mph 0.04 in Rain Light Rain
8:16 AM 46.0 °F 40.2 °F 43.0 °F 89% 29.79 in 10.0 mi NW 12.7 mph 19.6 mph 0.01 in Rain Light Rain
8:23 AM 44.1 °F 37.1 °F 39.9 °F 85% 29.80 in 10.0 mi NW 15.0 mph 25.3 mph 0.01 in Rain Light Rain
8:53 AM 41.0 °F 33.5 °F 37.0 °F 86% 29.81 in 8.0 mi NNW 13.8 mph 21.9 mph 0.02 in Rain Light Rain
9:20 AM 39.0 °F 31.8 °F 36.0 °F 89% 29.83 in 10.0 mi NNW 11.5 mph 19.6 mph 0.00 in   Overcast
9:53 AM 37.9 °F 30.5 °F 32.0 °F 79% 29.85 in 10.0 mi NNW 11.5 mph 26.5 mph 0.00 in Rain Light Rain
10:06 AM 37.0 °F 29.8 °F 33.1 °F 86% 29.87 in 10.0 mi NW 10.4 mph - 0.00 in Rain Light Rain
10:53 AM 36.0 °F 26.3 °F 28.9 °F 76% 29.90 in 10.0 mi NW 16.1 mph 24.2 mph 0.00 in   Overcast
11:07 AM 36.0 °F 29.0 °F 28.0 °F 73% 29.92 in 10.0 mi NW 9.2 mph 23.0 mph N/A   Overcast
11:50 AM 33.8 °F 24.8 °F 26.6 °F 75% 29.94 in 2.0 mi NW 12.7 mph 24.2 mph 0.00 in Snow Light Snow
11:53 AM 33.1 °F 23.9 °F 27.0 °F 78% 29.93 in 1.5 mi NW 12.7 mph 21.9 mph 0.00 in Snow Light Snow
12:07 PM 32.0 °F 24.2 °F 28.0 °F 85% 29.94 in 2.0 mi NW 9.2 mph 18.4 mph 0.00 in Snow Light Snow
12:15 PM 33.1 °F 25.5 °F 28.0 °F 82% 29.94 in 9.0 mi NW 9.2 mph - 0.00 in   Overcast
12:53 PM 34.0 °F 25.5 °F 25.0 °F 70% 29.93 in 10.0 mi NW 11.5 mph 18.4 mph 0.00 in   Overcast
1:53 PM 33.1 °F 24.9 °F 21.9 °F 64% 29.94 in 10.0 mi NW 10.4 mph - N/A   Overcast
2:53 PM 32.0 °F 23.0 °F 23.0 °F 69% 29.96 in 10.0 mi NNW 11.5 mph 25.3 mph N/A   Mostly Cloudy
3:53 PM 32.0 °F 23.6 °F 21.0 °F 64% 29.98 in 10.0 mi NNW 10.4 mph - N/A   Partly Cloudy
4:53 PM 32.0 °F 21.2 °F 17.1 °F 54% 30.02 in 10.0 mi NNW 16.1 mph 23.0 mph N/A   Clear
5:53 PM 30.9 °F 22.2 °F 15.1 °F 52% 30.05 in 10.0 mi NNW 10.4 mph - N/A   Clear
6:53 PM 30.0 °F 21.7 °F 15.1 °F 54% 30.09 in 10.0 mi NNW 9.2 mph - N/A   Clear
7:53 PM 28.0 °F 14.9 °F 8.1 °F 43% 30.11 in 10.0 mi NNW 19.6 mph 26.5 mph N/A   Clear
8:53 PM 26.1 °F 17.6 °F 8.1 °F 47% 30.15 in 10.0 mi NNW 8.1 mph - N/A   Clear
9:53 PM 25.0 °F 13.1 °F 3.0 °F 39% 30.18 in 10.0 mi NNW 13.8 mph - N/A   Clear
10:53 PM 24.1 °F 15.2 °F 3.0 °F 40% 30.19 in 10.0 mi NW 8.1 mph - N/A   Clear
11:53 PM 24.1 °F 14.4 °F 5.0 °F 44% 30.20 in 10.0 mi NNW 9.2 mph 18.4 mph N/A   Clear